Temp
-2 -3 -3 -3 -3 -4 -5 -6 -7 -6 -7 -9 -11 -11 -10 -9 -10 -11 -11 -12 -13 -14 -14 -15 -17 -17 -18 -19 -19 -19 -20 -20 -20 -20 -20 -19 -19 -19 -19 -19 -20 -21 -20 -20 -21 -21 -22 -22 -22 -22 -22 -22 -22 -23
-2 -2 -3 -5 -6 -7 -7 -7 -6 -9 -11 -12 -10 -10 -9 -11 -11 -12 -13 -13 -14 -15 -16 -17 -18 -19 -19 -19 -20 -20 -20 -20 -20 -20 -20 -20 -20 -20 -20 -20 -21 -23 -22 -22 -22 -23 -23 -23 -23 -23 -23 -23 -23 -23
-3 -4 -6 -7 -7 -7 -6 -9 -11 -11 -10 -10 -10 -10 -11 -12 -12 -13 -14 -14 -15 -17 -18 -19 -19 -19 -20 -20 -20 -21 -20 -20 -21 -21 -21 -21 -21 -21 -21 -22 -22 -23 -24 -23 -23 -24 -24 -24 -24 -24 -24 -25 -24 -24
-7 -7 -7 -6 -7 -9 -10 -11 -10 -10 -10 -11 -11 -12 -12 -13 -14 -14 -15 -16 -17 -18 -19 -20 -20 -20 -21 -21 -21 -21 -21 -21 -21 -21 -21 -21 -21 -21 -21 -22 -23 -24 -24 -25 -25 -25 -25 -25 -25 -25 -25 -25 -24 -24
-7 -7 -8 -10 -10 -9 -9 -10 -10 -12 -11 -12 -13 -13 -14 -14 -15 -16 -17 -18 -19 -19 -20 -21 -21 -22 -22 -22 -22 -21 -21 -21 -21 -21 -21 -21 -21 -22 -23 -23 -24 -25 -25 -25 -26 -25 -25 -25 -25 -25 -25 -25 -25 -25
-9 -10 -9 -9 -9 -9 -11 -11 -11 -12 -12 -13 -13 -14 -15 -16 -17 -18 -19 -20 -20 -20 -21 -21 -22 -22 -22 -22 -22 -22 -22 -21 -21 -22 -21 -22 -22 -23 -24 -25 -25 -25 -26 -26 -26 -26 -26 -26 -26 -25 -25 -25 -25 -25
-8 -9 -9 -10 -10 -10 -11 -12 -12 -13 -14 -14 -15 -16 -16 -17 -19 -20 -20 -20 -21 -21 -22 -22 -22 -23 -23 -22 -22 -22 -22 -22 -22 -22 -22 -23 -24 -24 -25 -25 -27 -27 -27 -27 -27 -27 -26 -27 -26 -26 -26 -26 -26 -26
-10 -10 -10 -10 -11 -12 -12 -13 -13 -14 -15 -16 -17 -18 -19 -19 -19 -20 -20 -21 -21 -22 -22 -22 -23 -23 -23 -23 -23 -23 -23 -23 -23 -23 -24 -24 -25 -25 -25 -27 -27 -27 -27 -27 -27 -27 -27 -26 -26 -26 -26 -26 -26 -26
-10 -11 -11 -12 -13 -13 -14 -14 -14 -15 -17 -18 -19 -20 -20 -20 -20 -20 -21 -21 -22 -22 -23 -23 -23 -23 -24 -24 -23 -23 -24 -24 -24 -24 -24 -25 -26 -26 -27 -27 -28 -28 -27 -27 -27 -27 -27 -27 -27 -27 -27 -26 -26 -26
-12 -12 -13 -13 -14 -14 -15 -15 -17 -19 -19 -20 -20 -20 -20 -20 -21 -21 -22 -22 -22 -23 -24 -25 -25 -25 -24 -24 -24 -24 -24 -24 -25 -26 -26 -26 -27 -28 -27 -27 -27 -27 -27 -27 -27 -27 -27 -27 -27 -27 -27 -27 -27 -27
-13 -13 -14 -14 -15 -16 -18 -19 -18 -19 -20 -20 -20 -20 -20 -21 -21 -22 -22 -23 -24 -24 -25 -25 -25 -25 -25 -25 -24 -25 -25 -26 -26 -27 -26 -27 -28 -27 -28 -28 -28 -28 -28 -28 -27 -27 -27 -27 -27 -27 -27 -27 -27 -27
-14 -15 -15 -16 -17 -18 -18 -18 -19 -20 -20 -20 -20 -20 -21 -21 -22 -22 -23 -24 -25 -25 -26 -25 -25 -25 -25 -25 -25 -26 -26 -26 -26 -27 -27 -27 -28 -28 -28 -28 -28 -28 -28 -28 -28 -28 -28 -28 -28 -27 -27 -27 -27 -27
-15 -16 -16 -16 -17 -19 -19 -20 -20 -20 -20 -20 -21 -21 -22 -22 -22 -24 -25 -25 -25 -26 -25 -25 -25 -25 -25 -26 -26 -26 -26 -26 -27 -27 -27 -27 -28 -28 -28 -28 -28 -28 -28 -28 -28 -28 -28 -28 -28 -28 -28 -28 -27 -27
-16 -17 -17 -18 -19 -20 -20 -20 -20 -20 -20 -20 -21 -22 -23 -24 -25 -25 -25 -25 -25 -25 -25 -25 -25 -25 -26 -26 -26 -26 -26 -27 -27 -27 -27 -28 -28 -28 -28 -28 -28 -28 -28 -28 -28 -28 -28 -28 -28 -28 -28 -28 -28 -28
-17 -17 -18 -18 -19 -19 -20 -20 -20 -20 -20 -20 -22 -23 -25 -25 -25 -25 -24 -24 -25 -25 -25 -25 -25 -25 -26 -26 -26 -26 -27 -27 -27 -27 -27 -27 -27 -27 -27 -28 -28 -28 -28 -28 -28 -28 -28 -28 -28 -28 -28 -28 -28 -28
-19 -19 -19 -19 -19 -20 -20 -20 -20 -20 -19 -23 -24 -24 -25 -25 -25 -25 -24 -24 -24 -25 -25 -25 -25 -25 -26 -26 -26 -26 -27 -27 -27 -27 -27 -27 -27 -27 -27 -27 -28 -28 -28 -28 -28 -28 -28 -28 -28 -28 -28 -28 -28 -28
-20 -18 -19 -19 -19 -19 -20 -21 -19 -18 -23 -24 -25 -24 -24 -24 -24 -24 -24 -24 -24 -24 -24 -25 -25 -25 -26 -26 -27 -27 -27 -27 -27 -26 -27 -27 -27 -27 -27 -27 -27 -27 -27 -27 -27 -27 -28 -28 -28 -28 -28 -28 -28 -28
-18 -19 -19 -19 -21 -21 -20 -17 -18 -22 -24 -24 -24 -24 -24 -24 -24 -24 -24 -23 -23 -24 -24 -25 -25 -26 -26 -26 -26 -26 -26 -25 -26 -26 -26 -26 -26 -26 -26 -26 -26 -26 -26 -27 -27 -27 -27 -27 -27 -28 -28 -28 -28 -28
-19 -19 -20 -20 -21 -19 -18 -20 -21 -23 -24 -24 -24 -23 -23 -23 -23 -23 -23 -23 -23 -23 -23 -24 -25 -25 -25 -25 -24 -24 -25 -24 -24 -24 -25 -25 -25 -25 -25 -25 -25 -25 -26 -26 -26 -26 -26 -27 -27 -27 -27 -27 -27 -28
-20 -21 -20 -20 -18 -16 -19 -21 -22 -24 -24 -24 -23 -23 -23 -23 -23 -23 -22 -22 -22 -22 -23 -24 -24 -24 -23 -23 -23 -23 -23 -23 -23 -22 -23 -24 -24 -23 -24 -24 -24 -24 -25 -25 -25 -26 -26 -26 -26 -26 -27 -27 -27 -27
-20 -20 -18 -17 -16 -17 -19 -21 -22 -23 -23 -23 -22 -22 -22 -22 -22 -22 -21 -21 -21 -22 -23 -23 -23 -23 -23 -22 -22 -22 -22 -22 -22 -22 -22 -21 -22 -22 -23 -23 -23 -24 -24 -24 -24 -25 -25 -25 -26 -26 -26 -27 -27 -27
-19 -18 -17 -16 -17 -19 -21 -21 -22 -22 -22 -22 -21 -21 -21 -21 -21 -21 -21 -21 -22 -23 -22 -22 -22 -21 -22 -21 -21 -21 -21 -22 -22 -22 -22 -22 -22 -22 -23 -23 -23 -23 -23 -24 -23 -24 -24 -25 -25 -25 -25 -26 -26 -26
-17 -17 -16 -17 -19 -21 -21 -20 -20 -21 -21 -21 -21 -21 -21 -21 -21 -21 -22 -22 -22 -22 -21 -21 -21 -21 -21 -21 -21 -21 -21 -21 -21 -21 -21 -22 -22 -22 -22 -23 -23 -22 -22 -23 -23 -23 -24 -24 -24 -25 -25 -25 -25 -25
-16 -16 -17 -19 -20 -20 -20 -20 -20 -20 -20 -20 -20 -20 -20 -20 -20 -21 -21 -21 -21 -21 -21 -20 -20 -20 -20 -20 -20 -20 -20 -20 -20 -20 -20 -21 -21 -21 -22 -22 -22 -23 -23 -23 -23 -23 -23 -24 -24 -24 -25 -25 -25 -25
-16 -18 -19 -19 -20 -20 -19 -19 -19 -20 -20 -20 -20 -20 -20 -20 -21 -21 -21 -21 -20 -20 -20 -20 -20 -20 -19 -20 -20 -20 -20 -20 -20 -20 -20 -20 -20 -20 -21 -21 -22 -22 -22 -22 -23 -23 -23 -24 -24 -24 -24 -25 -25 -24
-17 -19 -19 -19 -19 -18 -19 -19 -19 -19 -19 -19 -20 -20 -20 -20 -21 -21 -21 -20 -20 -20 -20 -20 -19 -19 -19 -19 -19 -19 -19 -19 -20 -20 -20 -20 -20 -20 -20 -20 -21 -21 -22 -22 -23 -23 -23 -24 -24 -24 -24 -25 -25 -25
-18 -19 -18 -18 -18 -18 -18 -18 -18 -18 -19 -19 -19 -19 -19 -20 -20 -20 -20 -20 -20 -20 -20 -20 -20 -19 -19 -19 -19 -19 -19 -19 -19 -19 -19 -19 -20 -20 -20 -21 -21 -21 -22 -23 -23 -23 -24 -24 -24 -24 -24 -24 -25 -25
-18 -18 -18 -18 -18 -18 -18 -17 -18 -19 -19 -19 -19 -19 -20 -20 -20 -19 -19 -19 -19 -19 -19 -19 -19 -19 -19 -19 -18 -18 -18 -18 -18 -18 -19 -19 -19 -19 -20 -20 -21 -21 -22 -22 -23 -23 -23 -23 -23 -24 -24 -24 -25 -25
-17 -17 -17 -17 -17 -17 -18 -18 -18 -19 -19 -19 -19 -19 -19 -19 -19 -19 -19 -19 -19 -18 -18 -18 -18 -18 -18 -19 -18 -18 -17 -17 -16 -17 -17 -17 -17 -18 -18 -19 -20 -20 -20 -20 -21 -22 -22 -23 -23 -23 -24 -24 -24 -24
-17 -17 -17 -17 -17 -17 -18 -18 -18 -18 -18 -19 -19 -19 -19 -19 -19 -19 -19 -18 -18 -18 -18 -18 -18 -17 -17 -17 -17 -17 -17 -17 -17 -17 -17 -17 -17 -18 -18 -18 -19 -19 -19 -20 -20 -20 -21 -22 -22 -22 -23 -23 -23 -24
-17 -17 -17 -17 -17 -17 -17 -17 -18 -18 -18 -18 -18 -18 -18 -18 -18 -18 -18 -18 -18 -18 -18 -17 -17 -17 -17 -17 -16 -16 -16 -17 -17 -18 -17 -17 -17 -17 -18 -18 -18 -18 -18 -19 -19 -20 -20 -21 -21 -22 -22 -23 -23 -24
-16 -16 -16 -16 -17 -17 -17 -17 -17 -17 -17 -17 -17 -17 -17 -17 -17 -17 -17 -18 -18 -18 -17 -17 -17 -17 -17 -17 -17 -17 -17 -17 -17 -17 -17 -17 -17 -17 -17 -17 -18 -18 -18 -18 -19 -19 -20 -20 -21 -21 -22 -22 -23 -24
-16 -16 -16 -16 -16 -16 -16 -16 -16 -16 -17 -17 -17 -17 -17 -17 -17 -17 -17 -17 -17 -17 -17 -17 -17 -17 -17 -17 -17 -17 -17 -17 -17 -17 -17 -17 -17 -17 -17 -17 -17 -17 -18 -18 -18 -19 -19 -20 -20 -21 -21 -22 -23 -23
Height
3002 3001 3006 3008 3009 3009 3012 3015 3019 3019 3018 3018 3019 3020 3020 3020 3019 3017 3015 3013 3013 3009 3008 3007 3005 3004 3001 2999 2998 2998 2998 2996 2996 2995 2994 2992 2988 2985 2984 2981 2979 2979 2977 2973 2972 2970 2972 2970 2971 2973 2971 2968 2968 2967
2997 2998 2997 3000 3003 3007 3009 3011 3011 3011 3013 3015 3015 3014 3014 3013 3011 3010 3009 3007 3006 3005 3004 3002 2999 2998 2997 2995 2995 2993 2995 2994 2993 2992 2991 2988 2987 2983 2980 2979 2977 2978 2976 2974 2974 2971 2970 2968 2969 2968 2967 2966 2965 2963
2993 2994 2996 3001 3003 3004 3004 3004 3006 3009 3011 3010 3010 3008 3007 3006 3005 3004 3003 3001 3000 2999 2998 2996 2995 2994 2993 2992 2991 2991 2991 2990 2988 2987 2986 2985 2983 2980 2978 2976 2974 2973 2972 2971 2972 2970 2968 2967 2967 2965 2964 2962 2961 2960
2989 2994 2997 2999 2999 3000 3002 3004 3005 3005 3005 3004 3003 3002 3002 3001 3000 2998 2997 2995 2995 2995 2994 2993 2991 2991 2989 2988 2988 2987 2986 2985 2984 2983 2982 2980 2979 2977 2974 2973 2973 2972 2970 2969 2968 2967 2966 2965 2964 2962 2961 2959 2957 2955
2992 2992 2993 2995 2997 2999 3000 3000 3000 3000 3000 2999 2997 2997 2996 2995 2994 2993 2992 2992 2992 2994 2990 2989 2988 2987 2986 2985 2984 2983 2982 2981 2979 2978 2977 2976 2974 2974 2971 2971 2970 2969 2968 2968 2966 2965 2963 2963 2961 2959 2957 2955 2953 2951
2991 2993 2995 2996 2997 2997 2996 2996 2996 2996 2995 2993 2994 2992 2991 2991 2990 2989 2990 2990 2988 2988 2987 2986 2986 2984 2984 2983 2982 2980 2979 2977 2976 2975 2974 2972 2971 2972 2970 2969 2968 2967 2966 2965 2964 2962 2960 2958 2956 2954 2953 2951 2949 2946
2993 2993 2993 2993 2993 2992 2991 2991 2992 2993 2990 2988 2990 2988 2988 2987 2987 2987 2987 2986 2985 2984 2985 2984 2984 2984 2983 2982 2980 2979 2977 2975 2974 2973 2971 2970 2969 2970 2967 2967 2966 2965 2964 2962 2960 2959 2957 2954 2951 2950 2947 2945 2943 2941
2993 2992 2991 2990 2989 2989 2987 2987 2988 2988 2987 2986 2986 2986 2986 2985 2984 2984 2983 2983 2983 2983 2984 2984 2984 2984 2982 2980 2979 2977 2975 2973 2972 2970 2970 2969 2969 2967 2966 2965 2964 2962 2961 2959 2957 2954 2951 2950 2948 2945 2942 2940 2938 2936
2988 2987 2986 2986 2986 2985 2983 2985 2987 2984 2984 2985 2985 2985 2985 2984 2983 2983 2983 2983 2983 2986 2984 2985 2984 2983 2981 2979 2977 2976 2974 2973 2972 2971 2970 2970 2967 2966 2965 2964 2962 2960 2958 2956 2954 2951 2948 2946 2943 2940 2937 2935 2932 2930
2985 2984 2984 2984 2984 2983 2979 2979 2982 2983 2984 2984 2985 2985 2983 2983 2983 2985 2983 2985 2984 2985 2985 2985 2984 2983 2982 2979 2977 2977 2974 2972 2971 2972 2970 2968 2967 2966 2964 2962 2960 2957 2955 2952 2949 2948 2945 2942 2938 2936 2933 2930 2926 2924
2982 2980 2979 2978 2979 2978 2978 2978 2982 2983 2984 2985 2985 2984 2985 2985 2985 2984 2985 2986 2987 2988 2988 2987 2985 2983 2982 2980 2978 2977 2975 2973 2973 2973 2971 2968 2967 2966 2963 2961 2958 2955 2952 2949 2945 2942 2939 2935 2932 2929 2927 2924 2921 2918
2978 2976 2975 2974 2975 2979 2977 2980 2982 2984 2985 2986 2986 2986 2986 2986 2987 2988 2988 2990 2990 2991 2991 2989 2987 2985 2983 2981 2979 2978 2977 2976 2974 2973 2971 2969 2968 2965 2962 2958 2955 2951 2948 2945 2941 2937 2934 2931 2927 2923 2920 2918 2915 2912
2974 2974 2975 2975 2977 2979 2981 2983 2984 2985 2986 2987 2988 2988 2988 2991 2992 2993 2995 2995 2995 2994 2993 2991 2989 2987 2984 2983 2981 2980 2978 2977 2976 2974 2972 2970 2966 2963 2959 2955 2952 2948 2943 2940 2936 2932 2928 2925 2922 2918 2914 2911 2907 2905
2976 2976 2976 2976 2978 2979 2982 2983 2985 2986 2987 2988 2989 2991 2994 2998 3002 3000 2998 2997 2997 2995 2994 2992 2990 2989 2986 2984 2983 2981 2981 2978 2976 2975 2972 2969 2964 2960 2956 2951 2947 2943 2939 2935 2931 2927 2923 2919 2915 2912 2908 2904 2900 2898
2977 2977 2977 2977 2979 2981 2983 2984 2986 2988 2988 2989 2994 2999 3006 3006 3005 3003 3001 2999 2997 2996 2995 2993 2992 2991 2988 2987 2986 2986 2984 2980 2978 2976 2971 2966 2961 2956 2952 2947 2942 2938 2933 2929 2925 2921 2917 2912 2908 2905 2902 2898 2894 2890
2979 2979 2979 2979 2980 2982 2984 2986 2988 2989 2989 2994 3002 3009 3010 3010 3009 3008 3006 3003 3000 2998 2997 2995 2994 2994 2993 2992 2991 2989 2986 2983 2979 2973 2968 2962 2957 2953 2948 2943 2938 2933 2928 2923 2919 2914 2910 2905 2901 2897 2894 2890 2886 2882
2984 2983 2983 2985 2986 2986 2987 2993 2995 2991 2995 3007 3013 3015 3016 3015 3014 3012 3010 3008 3006 3005 3001 2999 2999 2998 2998 2996 2993 2990 2987 2982 2976 2971 2965 2960 2953 2948 2944 2939 2933 2928 2923 2918 2913 2908 2904 2899 2894 2890 2886 2883 2879 2875
2989 2989 2991 2991 2995 2998 3001 3000 2996 3003 3008 3017 3020 3021 3021 3020 3019 3018 3016 3014 3012 3010 3008 3005 3003 3002 3001 2997 2994 2990 2985 2980 2974 2968 2963 2957 2952 2946 2940 2934 2930 2924 2919 2914 2908 2903 2898 2893 2889 2884 2880 2876 2872 2868
2998 2999 3000 3001 3002 3006 3004 3007 3009 3012 3021 3026 3028 3028 3028 3027 3026 3025 3024 3022 3019 3015 3011 3008 3008 3006 3003 2999 2994 2990 2984 2978 2972 2968 2962 2956 2950 2944 2938 2932 2926 2921 2916 2910 2905 2899 2894 2889 2884 2879 2874 2870 2865 2861
3009 3007 3011 3014 3015 3011 3010 3019 3020 3024 3031 3035 3036 3036 3036 3035 3034 3033 3031 3028 3024 3019 3017 3015 3012 3009 3005 3001 2995 2989 2983 2977 2971 2965 2961 2956 2949 2942 2936 2930 2924 2918 2912 2906 2901 2895 2889 2885 2880 2875 2870 2865 2859 2855
3020 3020 3027 3029 3025 3021 3022 3030 3033 3038 3041 3043 3045 3044 3044 3043 3041 3038 3035 3031 3027 3023 3022 3019 3016 3012 3007 3001 2996 2990 2985 2978 2972 2965 2958 2953 2948 2940 2934 2928 2922 2916 2909 2903 2897 2892 2886 2880 2875 2870 2865 2861 2856 2852
3033 3036 3038 3038 3034 3033 3039 3043 3046 3049 3051 3052 3052 3051 3050 3048 3044 3041 3039 3035 3032 3031 3027 3023 3019 3014 3009 3003 2998 2991 2986 2979 2973 2967 2961 2954 2947 2941 2934 2927 2921 2915 2908 2901 2894 2888 2882 2876 2870 2865 2860 2856 2851 2847
3048 3048 3046 3045 3047 3050 3057 3057 3058 3058 3059 3059 3058 3055 3054 3052 3050 3048 3047 3044 3041 3037 3033 3028 3023 3017 3012 3007 3001 2995 2988 2982 2975 2968 2962 2955 2948 2941 2934 2927 2919 2912 2906 2900 2892 2885 2879 2873 2867 2861 2855 2850 2845 2840
3061 3055 3058 3059 3063 3067 3068 3068 3067 3066 3066 3065 3063 3062 3061 3059 3058 3055 3053 3050 3047 3042 3038 3032 3027 3023 3017 3011 3004 2998 2991 2985 2978 2970 2963 2956 2949 2942 2934 2927 2920 2913 2905 2898 2891 2884 2877 2870 2863 2857 2851 2845 2840 2834
3071 3072 3076 3076 3077 3078 3076 3076 3076 3075 3074 3072 3069 3068 3067 3064 3062 3061 3058 3054 3050 3046 3041 3036 3031 3025 3019 3014 3007 3001 2994 2986 2979 2972 2966 2958 2952 2945 2938 2930 2922 2912 2905 2897 2890 2882 2875 2868 2861 2854 2847 2841 2835 2829
3079 3084 3088 3086 3087 3086 3085 3085 3084 3083 3080 3077 3076 3073 3071 3069 3068 3067 3065 3060 3055 3050 3045 3040 3034 3030 3024 3017 3010 3004 2997 2991 2984 2976 2969 2960 2952 2945 2937 2928 2920 2914 2905 2896 2888 2880 2873 2866 2858 2852 2846 2839 2833 2826
3092 3097 3097 3097 3096 3094 3093 3092 3090 3087 3086 3084 3081 3078 3077 3077 3077 3076 3071 3066 3061 3057 3051 3046 3040 3034 3028 3022 3016 3010 3003 2996 2989 2982 2974 2966 2958 2949 2939 2930 2922 2914 2904 2895 2887 2878 2870 2862 2855 2848 2841 2835 2828 2821
3104 3106 3106 3106 3104 3102 3099 3096 3094 3094 3092 3091 3088 3087 3087 3086 3084 3080 3076 3072 3068 3063 3058 3053 3046 3040 3034 3028 3021 3015 3009 3003 2996 2988 2982 2972 2963 2953 2945 2936 2926 2918 2909 2899 2889 2880 2872 2863 2855 2847 2840 2833 2826 2819
3114 3114 3114 3113 3110 3106 3105 3103 3103 3102 3102 3099 3097 3094 3093 3091 3088 3085 3081 3076 3072 3067 3062 3058 3053 3047 3041 3033 3025 3018 3010 3003 2995 2988 2980 2972 2964 2958 2948 2939 2931 2923 2914 2904 2894 2884 2875 2866 2858 2850 2842 2835 2828 2820
3121 3121 3120 3118 3114 3113 3113 3111 3110 3109 3107 3105 3103 3101 3098 3095 3092 3088 3083 3079 3074 3069 3064 3059 3053 3047 3042 3036 3031 3024 3016 3008 2999 2991 2983 2975 2967 2959 2950 2943 2935 2927 2917 2907 2898 2889 2881 2872 2864 2856 2847 2838 2830 2822
3126 3126 3124 3122 3120 3119 3118 3117 3115 3113 3111 3109 3107 3104 3101 3098 3095 3091 3086 3081 3077 3072 3069 3063 3057 3051 3044 3038 3031 3026 3021 3015 3007 3000 2992 2983 2974 2966 2957 2949 2942 2933 2922 2913 2903 2893 2884 2875 2866 2857 2848 2840 2832 2824
3131 3130 3128 3127 3126 3125 3123 3121 3120 3118 3115 3113 3110 3107 3105 3101 3097 3092 3088 3084 3080 3075 3070 3065 3060 3054 3049 3044 3038 3031 3024 3017 3010 3002 2994 2986 2978 2970 2962 2955 2947 2938 2928 2919 2909 2899 2889 2879 2870 2860 2851 2842 2834 2827
3134 3133 3132 3130 3129 3127 3126 3124 3123 3121 3118 3115 3113 3110 3106 3103 3098 3095 3092 3087 3084 3079 3074 3069 3064 3059 3054 3050 3043 3037 3031 3024 3015 3008 3000 2990 2982 2973 2966 2959 2951 2942 2933 2924 2914 2904 2894 2885 2875 2865 2855 2846 2838 2830
Wind_Speed
30 31 33 36 46 57 44 28 26 24 10 12 15 20 24 25 27 24 22 22 22 24 25 24 22 19 20 20 20 17 15 9 9 10 9 10 7 6 7 10 10 8 6 5 4 2 2 6 6 7 8 10 12 14
22 35 45 48 35 24 24 24 11 13 13 17 21 22 21 23 23 21 21 22 23 21 22 21 19 17 16 12 11 7 9 11 6 8 7 9 17 18 14 6 10 5 4 5 4 3 5 2 5 7 10 13 14 15
38 44 33 21 22 23 13 11 12 13 17 18 17 23 23 20 20 21 22 21 20 19 18 14 10 15 12 11 11 12 13 14 14 14 15 16 13 11 7 8 8 6 5 5 5 7 7 8 8 9 10 12 14 16
23 18 22 20 5 10 10 11 14 15 15 19 21 20 19 19 20 20 19 18 16 13 14 15 8 12 12 10 11 13 14 14 16 16 19 17 16 14 11 9 10 8 6 7 9 10 10 11 11 12 14 16 17 18
15 17 7 11 9 9 11 11 13 17 17 17 18 18 19 19 19 18 14 12 10 10 12 12 13 11 10 10 9 10 11 12 12 14 13 13 13 9 9 7 8 7 8 8 8 11 12 12 14 14 15 17 19 19
11 7 5 8 10 9 16 16 14 13 14 16 17 18 17 16 13 11 9 9 7 9 12 9 8 7 8 11 11 11 11 10 12 13 13 11 11 7 6 6 9 9 8 10 11 13 16 16 16 17 16 18 19 21
6 8 8 15 16 14 14 14 13 11 15 18 14 15 12 10 9 9 10 9 6 5 3 3 3 3 5 8 10 11 10 8 7 8 8 8 7 5 7 7 8 10 11 13 14 15 16 19 19 19 22 21 20 21
11 15 13 12 11 12 13 13 13 13 14 13 8 5 4 7 5 4 3 2 1 1 2 2 3 7 8 10 9 9 8 7 5 4 3 3 3 4 4 7 8 10 12 13 15 17 19 18 19 21 22 23 21 21
10 10 10 10 10 11 14 15 12 11 4 3 2 5 7 4 5 4 4 4 2 1 1 3 4 4 7 9 9 9 7 6 3 3 3 5 4 3 7 8 10 12 15 15 15 18 20 21 21 22 23 23 24 22
8 9 9 10 11 12 12 11 4 6 4 5 5 9 4 5 5 4 4 4 4 9 12 8 10 9 9 8 8 7 5 5 3 5 7 4 4 8 11 12 12 13 15 18 19 16 19 20 22 22 23 24 25 25
10 12 12 11 7 3 12 10 4 3 6 6 9 5 4 5 4 4 4 4 8 5 12 13 11 11 11 9 8 7 5 6 4 5 6 4 6 12 13 14 17 18 18 19 21 22 22 23 23 23 22 23 24 24
10 9 6 5 5 22 17 4 2 3 6 8 3 7 7 6 6 5 7 7 7 7 13 11 11 11 12 9 7 6 4 5 3 9 5 5 15 16 17 18 18 20 21 21 21 22 22 23 24 25 25 25 25 24
7 6 4 1 4 10 9 7 7 10 9 2 4 4 5 7 13 9 8 8 5 7 11 13 11 11 9 11 5 5 5 4 9 5 6 10 21 20 21 22 21 21 22 22 23 24 24 25 24 26 26 26 27 26
4 4 5 7 10 12 14 13 10 6 7 8 8 12 9 9 11 14 11 8 7 7 9 9 13 9 11 7 6 6 7 7 6 6 7 24 23 22 22 23 24 23 23 23 24 25 25 26 26 25 26 27 27 26
11 10 11 11 12 12 12 12 11 9 6 10 9 11 15 17 18 20 18 13 8 7 7 9 7 12 11 5 7 7 9 6 6 15 25 24 24 24 23 23 24 25 25 25 25 26 26 27 28 28 27 27 28 29
13 13 17 15 13 12 11 9 6 9 28 34 24 21 21 18 16 17 21 22 17 11 9 9 11 6 8 6 8 7 11 6 20 25 26 26 25 25 25 24 25 25 26 26 26 27 27 28 28 28 26 26 27 29
13 16 23 23 22 22 26 24 27 33 41 29 30 27 25 25 25 20 16 19 22 22 20 11 9 9 7 9 9 13 17 21 23 23 24 26 27 26 26 25 25 25 25 26 26 26 27 27 27 27 27 25 26 27
24 26 24 27 26 24 27 26 44 49 45 36 33 30 30 29 28 28 27 24 20 15 16 17 21 21 8 16 19 21 22 22 22 24 24 25 26 26 28 29 27 27 27 27 27 27 26 26 26 25 25 25 24 24
31 29 25 23 23 27 49 53 54 51 42 37 34 33 32 31 30 28 26 25 27 28 30 23 12 23 21 22 23 22 23 25 24 20 21 23 26 26 26 27 28 27 26 26 27 27 26 26 26 26 25 25 25 24
26 28 28 37 47 50 58 50 49 42 38 35 34 32 32 30 29 28 28 28 29 32 30 28 26 25 25 24 25 26 27 27 29 27 23 21 26 26 26 27 27 26 27 26 27 27 28 27 26 26 26 25 26 25
31 39 43 45 48 54 56 48 43 41 37 34 32 33 32 31 31 31 33 33 34 33 30 28 26 25 26 26 27 27 27 28 28 29 30 29 27 29 29 29 28 27 28 28 28 26 26 27 27 27 27 25 25 24
48 49 47 48 53 55 51 48 45 40 37 34 34 34 34 35 36 37 36 37 36 32 30 28 29 29 28 29 29 30 30 29 29 28 28 29 31 30 29 30 31 30 29 30 31 29 28 28 28 28 27 26 26 25
47 48 50 52 49 42 40 40 40 37 35 34 36 38 39 38 37 38 37 33 31 30 31 30 29 29 30 30 30 31 33 33 33 33 32 30 31 32 33 33 35 35 34 31 32 31 31 30 29 29 29 28 28 27
47 52 50 45 36 34 34 33 34 33 31 33 34 34 36 37 38 38 35 35 34 33 32 33 33 31 30 31 32 33 34 35 35 36 37 37 36 35 36 35 35 36 36 35 34 33 32 31 31 30 29 28 27 27
41 35 27 33 30 31 32 31 30 31 31 32 34 34 32 34 36 36 36 36 36 37 37 35 34 35 35 33 33 33 35 37 38 39 40 40 40 39 38 38 37 39 40 39 39 37 35 33 32 31 30 29 29 29
37 27 26 28 28 29 29 28 28 29 30 29 25 28 31 33 32 33 33 34 36 37 38 39 40 40 40 40 38 37 36 37 38 39 41 43 44 44 44 44 43 41 42 42 42 40 38 36 35 33 32 30 29 29
34 28 27 27 28 29 30 30 32 33 31 29 30 32 31 18 20 28 30 31 32 33 34 35 37 39 40 40 40 40 39 39 40 41 42 43 44 45 47 47 47 46 45 45 43 42 41 39 37 35 34 32 31 31
29 25 24 24 26 27 29 31 31 30 31 31 32 29 19 21 25 26 27 28 28 29 31 33 34 36 37 39 40 42 42 41 42 43 43 44 45 47 46 46 47 47 45 44 43 41 40 40 39 37 36 35 34 33
23 21 20 21 24 29 29 29 28 27 25 25 26 26 23 24 23 24 25 26 28 30 30 31 32 33 34 37 41 43 46 47 48 50 51 53 54 53 53 52 49 48 49 49 47 44 41 39 39 38 37 36 35 34
20 17 18 20 25 26 24 24 22 22 22 22 22 21 21 22 23 24 26 27 28 30 32 34 36 38 39 39 39 41 44 46 48 50 51 52 53 54 55 55 53 52 53 53 52 49 46 43 39 37 36 37 37 37
16 15 17 19 20 20 20 19 20 20 20 20 20 20 21 21 22 24 26 27 29 30 30 32 35 38 40 42 43 44 44 44 45 46 46 48 49 49 51 52 52 54 54 54 54 54 52 49 46 43 41 40 39 39
13 14 14 15 15 15 15 15 16 17 19 20 21 21 21 22 24 25 26 27 28 29 32 33 35 37 38 39 40 42 44 46 47 48 49 50 49 49 49 49 51 53 54 54 54 54 54 54 51 49 47 44 40 39
12 13 14 14 13 13 11 13 15 16 18 20 22 23 23 24 26 26 26 27 27 28 30 32 33 35 36 36 38 40 41 43 45 47 48 49 50 51 50 49 49 51 52 54 54 55 56 55 54 54 51 48 44 41
Wind_Direction
270 272 245 249 253 240 244 240 237 238 282 329 311 298 289 288 287 287 291 292 292 292 290 288 286 286 292 293 295 294 290 288 276 259 269 287 275 277 289 281 284 287 289 281 282 270 213 282 231 230 241 263 274 289
257 255 240 232 228 220 220 222 260 343 324 297 285 288 291 287 287 292 291 292 291 287 283 285 287 291 294 295 294 279 268 277 255 254 253 281 292 287 278 265 275 255 265 289 280 235 217 270 246 259 273 280 289 295
235 225 217 210 210 216 246 349 331 296 282 287 293 290 284 287 291 292 291 289 288 285 286 283 288 294 296 288 280 280 278 284 273 267 270 286 276 276 263 262 257 262 260 261 241 251 259 268 278 283 289 298 299 298
194 197 206 216 288 358 331 296 283 290 294 290 280 282 290 291 292 291 290 289 285 279 278 289 289 295 293 289 289 288 287 279 281 272 270 277 266 268 260 259 245 259 255 253 252 263 270 277 284 288 291 292 291 295
204 207 11 4 329 285 285 294 295 288 280 281 285 294 292 292 291 290 285 283 273 273 283 292 293 292 292 300 309 305 298 284 273 271 264 270 265 258 249 244 245 261 261 263 268 274 281 286 289 291 292 292 292 291
11 356 299 293 302 304 302 291 280 286 289 285 291 289 289 287 283 284 278 278 270 278 278 275 284 286 302 308 310 312 306 292 276 272 270 263 257 240 226 240 261 268 274 280 283 289 292 294 295 296 294 293 294 294
315 319 320 311 304 286 280 281 286 296 286 287 295 284 284 287 297 290 289 294 285 284 268 259 264 291 316 317 317 314 320 318 299 279 264 257 250 241 247 248 268 271 277 283 288 285 289 298 299 298 298 297 296 296
313 307 293 280 280 285 289 291 304 290 286 290 275 274 317 321 310 320 318 336 339 289 251 269 278 287 295 314 317 320 321 312 307 301 270 258 277 260 254 275 283 288 290 295 296 299 301 301 299 299 300 301 299 300
291 288 289 291 296 296 287 286 287 285 263 163 63 18 345 1 10 34 58 49 59 269 212 21 345 330 335 332 330 335 335 333 330 358 327 305 280 289 315 314 309 306 305 301 296 297 297 300 301 302 302 303 302 303
298 298 298 295 288 280 273 293 291 131 88 61 30 7 31 42 43 55 63 60 78 61 59 29 15 358 350 351 346 341 345 352 332 334 339 309 326 328 328 323 317 314 312 309 306 300 295 297 300 300 299 300 301 302
310 310 311 308 300 224 176 207 132 57 24 12 358 14 69 62 73 60 48 48 37 44 27 22 18 10 5 359 359 5 352 344 341 344 339 329 341 336 328 322 319 317 315 314 311 311 310 308 306 303 302 301 300 300
315 318 337 14 66 150 192 209 218 322 343 343 62 90 77 55 41 46 35 36 38 46 17 13 16 12 8 1 6 355 353 346 331 332 327 337 341 331 325 321 318 314 312 311 308 308 308 308 307 306 305 304 302 301
7 30 47 66 152 163 182 199 236 261 287 153 123 78 51 52 44 46 32 31 35 19 15 17 9 3 359 4 354 353 352 342 326 332 318 326 334 332 325 321 319 315 313 313 312 310 310 309 308 307 307 305 303 302
42 77 106 132 154 175 196 215 225 186 140 112 71 55 54 44 37 36 30 21 15 4 0 354 10 5 3 359 358 352 340 335 340 323 330 330 326 324 321 319 318 317 314 312 311 309 308 308 307 306 306 305 304 303
69 79 99 118 132 145 151 151 145 145 139 93 63 61 68 71 59 49 42 37 30 17 8 10 2 12 14 16 8 356 341 332 334 326 327 329 330 328 326 324 322 319 317 315 312 310 308 307 305 305 303 301 299 298
74 91 92 91 104 119 125 127 128 137 109 81 86 90 73 62 57 53 51 46 41 37 28 29 26 17 16 15 352 353 344 321 319 326 328 329 332 331 328 327 324 322 320 318 316 313 312 311 309 308 308 305 300 298
89 93 93 92 89 96 100 117 131 99 89 95 83 81 77 70 64 61 58 56 54 54 57 55 33 29 21 357 353 347 339 332 332 337 335 331 334 336 335 335 333 329 327 324 322 321 319 316 314 313 311 310 306 304
94 90 91 96 96 108 129 126 98 93 87 87 83 80 74 68 63 61 59 57 57 53 51 56 43 36 23 4 357 347 345 345 343 337 336 332 334 336 335 335 337 335 334 333 330 328 325 322 320 318 316 315 313 309
92 93 98 107 122 134 110 97 95 91 88 86 82 78 74 70 65 62 60 60 58 55 51 45 29 22 15 4 3 2 356 355 359 358 347 339 337 341 338 336 335 333 331 329 331 332 332 332 328 325 324 322 320 320
97 99 111 124 118 109 97 91 90 88 85 83 80 77 74 71 68 64 59 56 53 49 40 35 25 17 14 11 7 5 2 0 358 5 7 357 350 351 348 346 348 344 340 334 331 328 326 328 327 328 328 328 326 326
110 115 115 109 105 97 94 93 91 90 88 84 82 78 73 70 66 60 54 49 46 40 32 25 23 17 13 12 11 11 7 3 1 358 359 6 3 359 355 352 353 351 347 344 344 341 333 328 326 324 324 325 324 326
109 108 105 100 94 91 92 92 90 89 88 86 82 79 73 66 60 54 50 43 39 32 30 26 23 22 20 17 15 13 11 8 5 5 1 357 359 360 357 354 356 358 356 349 348 346 343 336 333 330 327 324 322 323
105 104 97 91 89 90 90 94 93 92 89 83 76 69 63 58 54 52 45 40 36 31 30 30 28 22 21 20 18 16 14 13 11 11 10 8 4 3 2 359 357 358 0 358 353 351 347 344 341 337 333 330 326 324
98 94 89 90 91 93 92 92 89 85 81 78 72 66 61 56 51 45 40 38 36 36 35 31 29 30 26 21 18 17 16 15 14 13 13 12 12 9 6 4 359 359 358 359 356 354 350 348 345 342 338 334 331 327
90 86 92 91 90 90 87 85 82 81 78 74 69 63 57 53 45 37 34 33 34 34 35 35 32 27 27 26 23 20 18 17 16 16 15 13 13 12 11 8 6 1 0 360 359 357 355 351 349 346 344 339 336 335
84 85 91 92 89 87 85 82 80 77 76 70 62 57 52 47 38 30 30 29 29 29 28 27 30 32 29 28 29 28 26 25 23 20 18 16 13 10 10 9 9 8 2 359 358 357 355 353 351 349 347 344 340 336
89 88 88 88 89 88 85 80 73 67 62 60 59 54 49 38 29 29 33 32 30 27 26 26 25 25 26 26 26 28 29 28 27 25 21 18 16 14 13 10 10 9 6 2 359 357 357 356 355 356 355 353 348 344
89 89 89 87 85 81 77 72 67 62 59 55 57 55 49 41 32 30 30 32 34 33 29 29 30 26 23 23 23 26 30 32 31 29 28 25 19 19 17 16 14 11 9 7 5 4 3 3 3 2 1 0 359 355
86 86 85 84 81 74 69 67 64 61 59 55 54 52 46 39 34 34 34 32 31 33 34 33 33 34 32 25 22 22 22 24 26 27 26 25 25 25 22 20 16 15 17 17 15 12 11 8 6 5 5 6 6 5
87 81 79 75 71 69 66 64 61 57 53 50 47 44 39 36 31 29 29 30 31 30 28 26 27 27 27 29 29 25 21 20 20 19 18 20 21 19 19 18 16 16 17 19 19 18 17 15 13 11 10 11 12 11
82 78 74 69 68 66 63 60 55 50 46 42 39 37 35 33 31 29 27 25 25 25 27 27 25 24 23 21 21 22 22 20 19 17 16 17 18 17 17 15 14 16 17 17 18 19 19 17 15 15 16 15 13 13
73 68 65 63 59 54 50 46 43 41 41 39 37 35 31 28 29 30 28 25 22 20 21 21 22 24 22 19 18 16 14 13 12 12 12 14 14 15 15 13 12 13 14 16 16 17 18 18 16 16 18 17 15 14
64 56 49 43 36 32 31 42 43 43 38 34 29 28 27 26 26 25 23 23 21 20 21 20 18 17 14 14 16 15 13 11 10 9 9 11 10 11 10 11 10 11 11 12 14 15 16 17 16 17 18 18 16 15